Location: Oberkirch
(48.5323°N, 8.0787°E)
Time: 23:22:02
(UTC+00:00)

DUCHIFAT 1 - Visible Passes

Search period start: 12 March 2026 00:00
Search period end: 22 March 2026 00:00
Orbit: 412 x 420 km, 98.1° (Epoch: 12 March)

Date Brightness Start Highest point End Pass type
(mag) Time Alt. Az. Time Alt. Az. Time Alt. Az.
12 Mar ? 19:22:25 80° SSE 19:22:34 87° E 19:25:47 10° NNW visible
13 Mar ? 18:36:32 20° E 18:37:25 23° ENE 18:39:59 10° NNE visible
13 Mar ? 20:09:28 22° W 20:09:28 22° W 20:11:57 10° NW visible
14 Mar ? 19:23:27 69° SSE 19:23:47 88° E 19:26:59 10° NNW visible
15 Mar ? 18:37:21 19° E 18:38:24 22° ENE 18:40:59 10° NNE visible
15 Mar ? 20:10:16 22° W 20:10:20 22° W 20:12:56 10° NW visible
16 Mar ? 19:24:02 61° SSE 19:24:33 87° ENE 19:27:45 10° NNW visible
17 Mar ? 18:37:43 18° E 18:38:57 22° ENE 18:41:30 10° NNE visible
17 Mar ? 20:10:37 23° WSW 20:10:51 23° W 20:13:28 10° NW visible
18 Mar ? 19:24:11 53° SSE 19:24:51 85° ENE 19:28:03 10° NNW visible
19 Mar ? 18:37:37 16° ESE 18:39:03 22° ENE 18:41:33 10° NNE visible
19 Mar ? 20:10:31 23° WSW 20:10:55 23° W 20:13:34 10° NW visible
20 Mar ? 19:23:52 46° SSE 19:24:42 82° ENE 19:27:54 10° NNW visible
21 Mar ? 18:37:06 15° ESE 18:38:41 21° ENE 18:41:09 10° NNE visible
21 Mar ? 20:09:58 23° WSW 20:10:32 24° W 20:13:13 10° NW visible
